When you browse on this site, cookies collect data to enhance your experience and personalize the content and advertising you see.
Visit our Privacy Policy to learn more. By continuing to use the site, you agree to this use of cookies and data.
  • Em Portugal
  • Lista de países
  • Para 7 dias
  • Temperatura da água
  • Mapas de satélite
  • Mapa do tempo
  • Widgets de tempo
  • user-avatar
    Iniciar Sessão

    Previsão horária em Annovka

    Hoje, 24 Abril, Quarta-feira

    Tempo Temperatura Precipitação Vento Pressão Humidade
    00:00 +11°C° 0 mm 1 m/s 758 mmHg 50%
    01:00 +11°C° 0 mm 1 m/s 758 mmHg 51%
    02:00 +11°C° 0 mm 1 m/s 758 mmHg 53%
    03:00 +10°C° 0 mm 1 m/s 758 mmHg 54%
    04:00 +10°C° 0 mm 1 m/s 758 mmHg 55%
    05:00 +10°C° 0 mm 1 m/s 758 mmHg 56%
    06:00 +12°C° 0 mm 1 m/s 758 mmHg 53%
    07:00 +14°C° 0 mm 1 m/s 758 mmHg 50%
    08:00 +16°C° 0 mm 2 m/s 758 mmHg 47%
    09:00 +17°C° 0 mm 2 m/s 758 mmHg 42%
    10:00 +19°C° 0 mm 2 m/s 758 mmHg 37%
    11:00 +20°C° 0 mm 3 m/s 758 mmHg 33%
    12:00 +21°C° 0 mm 3 m/s 758 mmHg 31%
    13:00 +21°C° 0 mm 3 m/s 758 mmHg 30%
    14:00 +22°C° 0 mm 3 m/s 757 mmHg 29%
    15:00 +21°C° 0 mm 3 m/s 757 mmHg 30%
    16:00 +21°C° 0 mm 3 m/s 757 mmHg 32%
    17:00 +21°C° 0 mm 3 m/s 756 mmHg 33%
    18:00 +19°C° 0 mm 2 m/s 756 mmHg 38%
    19:00 +17°C° 0 mm 2 m/s 756 mmHg 42%
    20:00 +15°C° 0 mm 2 m/s 756 mmHg 47%
    21:00 +14°C° 0 mm 2 m/s 756 mmHg 49%
    22:00 +14°C° 0 mm 2 m/s 757 mmHg 50%
    23:00 +13°C° 0 mm 2 m/s 757 mmHg 52%

    Amanhã, 25 Abril, Quinta-feira

    Tempo Temperatura Precipitação Vento Pressão Humidade
    00:00 +12°C° 0 mm 2 m/s 757 mmHg 53%
    01:00 +12°C° 0 mm 1 m/s 757 mmHg 55%
    02:00 +11°C° 0 mm 1 m/s 757 mmHg 56%
    03:00 +11°C° 0 mm 1 m/s 757 mmHg 57%
    04:00 +11°C° 0 mm 1 m/s 757 mmHg 58%
    05:00 +10°C° 0 mm 1 m/s 757 mmHg 60%
    06:00 +12°C° 0 mm 2 m/s 757 mmHg 56%
    07:00 +14°C° 0 mm 2 m/s 757 mmHg 52%
    08:00 +16°C° 0 mm 2 m/s 757 mmHg 49%
    09:00 +18°C° 0 mm 3 m/s 757 mmHg 44%
    10:00 +19°C° 0 mm 4 m/s 756 mmHg 39%
    11:00 +21°C° 0 mm 5 m/s 756 mmHg 34%
    12:00 +21°C° 0 mm 5 m/s 756 mmHg 33%
    13:00 +22°C° 0 mm 5 m/s 756 mmHg 32%
    14:00 +22°C° 0 mm 5 m/s 755 mmHg 31%
    15:00 +22°C° 0 mm 5 m/s 755 mmHg 32%
    16:00 +21°C° 0 mm 4 m/s 754 mmHg 34%
    17:00 +21°C° 0 mm 4 m/s 754 mmHg 35%
    18:00 +19°C° 0 mm 3 m/s 754 mmHg 40%
    19:00 +17°C° 0 mm 3 m/s 754 mmHg 45%
    20:00 +15°C° 0 mm 2 m/s 754 mmHg 50%
    21:00 +14°C° 0 mm 2 m/s 754 mmHg 52%
    22:00 +14°C° 0 mm 2 m/s 754 mmHg 55%
    23:00 +13°C° 0 mm 2 m/s 754 mmHg 57%

    Depois de amanhã, 26 Abril, Sexta-feira

    Tempo Temperatura Precipitação Vento Pressão Humidade
    00:00 +12°C° 0 mm 2 m/s 754 mmHg 59%
    01:00 +12°C° 0 mm 2 m/s 754 mmHg 61%
    02:00 +12°C° 0 mm 2 m/s 754 mmHg 62%
    03:00 +10°C° 0 mm 2 m/s 753 mmHg 64%
    04:00 +10°C° 0 mm 2 m/s 753 mmHg 66%
    05:00 +10°C° 0 mm 3 m/s 753 mmHg 68%
    06:00 +12°C° 0 mm 3 m/s 753 mmHg 63%
    07:00 +13°C° 0 mm 3 m/s 753 mmHg 59%
    08:00 +15°C° 0 mm 4 m/s 753 mmHg 54%
    09:00 +18°C° 0 mm 4 m/s 753 mmHg 48%
    10:00 +19°C° 0 mm 5 m/s 752 mmHg 42%
    11:00 +21°C° 0 mm 6 m/s 752 mmHg 36%
    12:00 +21°C° 0 mm 6 m/s 752 mmHg 35%
    13:00 +22°C° 0 mm 6 m/s 751 mmHg 34%
    14:00 +22°C° 0 mm 6 m/s 751 mmHg 33%
    15:00 +22°C° 0 mm 5 m/s 750 mmHg 34%
    16:00 +22°C° 0 mm 5 m/s 750 mmHg 36%
    17:00 +21°C° 0 mm 5 m/s 750 mmHg 37%
    18:00 +19°C° 0 mm 4 m/s 750 mmHg 41%
    19:00 +17°C° 0 mm 4 m/s 749 mmHg 45%
    20:00 +14°C° 0 mm 3 m/s 749 mmHg 49%
    21:00 +14°C° 0 mm 3 m/s 749 mmHg 50%
    22:00 +13°C° 0 mm 3 m/s 749 mmHg 52%
    23:00 +13°C° 0 mm 3 m/s 749 mmHg 54%

    27 Abril, Sábado

    Tempo Temperatura Precipitação Vento Pressão Humidade
    00:00 +12°C° 0 mm 3 m/s 749 mmHg 56%
    01:00 +12°C° 0 mm 3 m/s 748 mmHg 58%
    02:00 +12°C° 0 mm 3 m/s 748 mmHg 61%
    03:00 +12°C° 0 mm 3 m/s 748 mmHg 62%
    04:00 +12°C° 0 mm 3 m/s 747 mmHg 63%
    05:00 +12°C° 0 mm 3 m/s 747 mmHg 65%
    06:00 +13°C° 0 mm 4 m/s 747 mmHg 64%
    07:00 +14°C° 0 mm 4 m/s 747 mmHg 64%
    08:00 +15°C° 0 mm 4 m/s 746 mmHg 63%
    09:00 +16°C° 0 mm 5 m/s 746 mmHg 59%
    10:00 +19°C° 0 mm 5 m/s 746 mmHg 55%
    11:00 +21°C° 0 mm 5 m/s 746 mmHg 50%
    12:00 +22°C° 0 mm 5 m/s 745 mmHg 49%
    13:00 +23°C° 0 mm 5 m/s 745 mmHg 47%
    14:00 +25°C° 0 mm 5 m/s 745 mmHg 45%
    15:00 +23°C° 0.3 mm 4 m/s 744 mmHg 49%
    16:00 +24°C° 0.3 mm 3 m/s 744 mmHg 53%
    17:00 +22°C° 0.3 mm 3 m/s 744 mmHg 57%
    18:00 +21°C° 0.4 mm 2 m/s 744 mmHg 63%
    19:00 +19°C° 0.4 mm 2 m/s 744 mmHg 69%
    20:00 +19°C° 0.4 mm 1 m/s 744 mmHg 76%
    21:00 +18°C° 0 mm 1 m/s 744 mmHg 80%
    22:00 +16°C° 0 mm 1 m/s 744 mmHg 84%
    23:00 +16°C° 0 mm 1 m/s 744 mmHg 88%

    28 Abril, Domingo

    Tempo Temperatura Precipitação Vento Pressão Humidade
    00:00 +15°C° 0.4 mm 1 m/s 744 mmHg 90%
    01:00 +15°C° 0.4 mm 1 m/s 744 mmHg 92%
    02:00 +15°C° 0.4 mm 1 m/s 744 mmHg 93%
    03:00 +14°C° 0 mm 1 m/s 744 mmHg 94%
    04:00 +14°C° 0 mm 1 m/s 744 mmHg 94%
    05:00 +14°C° 0 mm 1 m/s 744 mmHg 94%
    06:00 +15°C° 0 mm 1 m/s 744 mmHg 89%
    07:00 +18°C° 0 mm 1 m/s 744 mmHg 84%
    08:00 +18°C° 0 mm 2 m/s 744 mmHg 78%
    09:00 +19°C° 0.2 mm 2 m/s 745 mmHg 73%
    10:00 +21°C° 0.2 mm 2 m/s 745 mmHg 67%
    11:00 +23°C° 0.2 mm 2 m/s 745 mmHg 62%
    12:00 +22°C° 1 mm 3 m/s 745 mmHg 61%
    13:00 +22°C° 1 mm 3 m/s 745 mmHg 60%
    14:00 +22°C° 1 mm 4 m/s 745 mmHg 59%
    15:00 +22°C° 0.4 mm 4 m/s 745 mmHg 61%
    16:00 +22°C° 0.4 mm 4 m/s 746 mmHg 63%
    17:00 +21°C° 0.4 mm 5 m/s 746 mmHg 64%
    18:00 +20°C° 0 mm 4 m/s 746 mmHg 69%
    19:00 +18°C° 0 mm 4 m/s 746 mmHg 74%
    20:00 +17°C° 0 mm 4 m/s 747 mmHg 79%
    21:00 +15°C° 0 mm 4 m/s 747 mmHg 82%
    22:00 +14°C° 0 mm 5 m/s 747 mmHg 84%
    23:00 +13°C° 0 mm 5 m/s 748 mmHg 87%

    29 Abril, Segunda-feira

    Tempo Temperatura Precipitação Vento Pressão Humidade
    00:00 +13°C° 0 mm 5 m/s 748 mmHg 87%
    01:00 +12°C° 0 mm 5 m/s 748 mmHg 87%
    02:00 +10°C° 0 mm 5 m/s 748 mmHg 88%
    03:00 +10°C° 0 mm 5 m/s 749 mmHg 86%
    04:00 +9°C° 0 mm 5 m/s 749 mmHg 85%
    05:00 +9°C° 0 mm 5 m/s 749 mmHg 83%
    06:00 +9°C° 0 mm 6 m/s 749 mmHg 78%
    07:00 +10°C° 0 mm 6 m/s 750 mmHg 74%
    08:00 +10°C° 0 mm 6 m/s 750 mmHg 69%
    09:00 +13°C° 0 mm 6 m/s 750 mmHg 65%
    10:00 +14°C° 0 mm 6 m/s 750 mmHg 61%
    11:00 +16°C° 0 mm 6 m/s 750 mmHg 57%
    12:00 +16°C° 0 mm 6 m/s 750 mmHg 57%
    13:00 +16°C° 0 mm 6 m/s 750 mmHg 56%
    14:00 +17°C° 0 mm 6 m/s 750 mmHg 56%
    15:00 +16°C° 0 mm 6 m/s 750 mmHg 56%
    16:00 +16°C° 0 mm 5 m/s 750 mmHg 57%
    17:00 +16°C° 0 mm 5 m/s 750 mmHg 57%
    18:00 +15°C° 0 mm 5 m/s 751 mmHg 59%
    19:00 +14°C° 0 mm 4 m/s 751 mmHg 60%
    20:00 +13°C° 0 mm 4 m/s 751 mmHg 62%
    21:00 +12°C° 0 mm 4 m/s 751 mmHg 62%
    22:00 +11°C° 0 mm 4 m/s 751 mmHg 62%
    23:00 +9°C° 0 mm 5 m/s 752 mmHg 63%
    Mostrar mais